New York, NY

1:27 PM EST on December 08, 2019 (GMT -0500)
La Guardia

Weather History for KLGA - October, 2019

Change the Weather History Date:

Wednesday, October 9, 2019

  Actual Average Record
Temperature  
Mean Temperature 57 °F 60 °F  
Max Temperature 61 °F 68 °F 85 °F (2011)
Min Temperature 53 °F 53 °F 40 °F (1978)
Degree Days  
Heating Degree Days 8 6  
Month to date heating degree days 34 42  
Since 1 July heating degree days 37 77  
Cooling Degree Days 0 1  
Month to date cooling degree days 27 14  
Year to date cooling degree days 1482 1204  
Growing Degree Days 7 (Base 50)    
Moisture  
Dew Point 47 °F    
Average Humidity 69    
Maximum Humidity 83    
Minimum Humidity 55    
Precipitation  
Precipitation 0.54 in 0.13 in 2.00 in (1977)
Month to date precipitation 1.05 1.12  
Year to date precipitation 37.53 35.10  
Snow  
Snow 0.00 in 0.00 in - ()
Month to date snowfall 0.0 0.0  
Since 1 July snowfall 0.0 0.0  
Snow Depth 0.00 in    
Sea Level Pressure  
Sea Level Pressure 30.25 in    
Wind  
Wind Speed 16 mph (NNE)    
Max Wind Speed 31 mph    
Max Gust Speed 35 mph    
Visibility 9 miles    
Events Rain    
T = Trace of Precipitation, MM = Missing Value Source: NWS Daily Summary

Daily Weather History Graph

Daily Weather History Graph

Search for Another Location

Airport or City:

Astronomy

Oct. 09, 2019 Rise Set
Actual Time 7:00 AM EDT 6:24 PM EDT
Civil Twilight 6:32 AM EDT 6:52 PM EDT
Nautical Twilight 6:00 AM EDT 7:23 PM EDT
Astronomical Twilight 5:29 AM EDT 7:55 PM EDT
Moon 4:57 PM EDT (10/9) 2:42 AM EDT (10/9)
Length of Visible Light 12h 19m
Length of Day
11h 24m
Waxing Gibbous, 85% of the Moon is Illuminated
Oct 9
Waxing Gibbous
Oct 13
Full
Oct 21
Last Quarter
Oct 27
New
Nov 4
First Quarter

Hourly Weather History & Observations

Time (EDT) Temp. Dew Point Humidity Pressure Visibility Wind Dir Wind Speed Gust Speed Precip Events Conditions
12:51 AM 61.0 °F 46.9 °F 60% 30.22 in 10.0 mi NNE 16.1 mph 24.2 mph N/A   Overcast
1:51 AM 60.1 °F 48.0 °F 64% 30.21 in 10.0 mi NE 18.4 mph 27.6 mph N/A   Overcast
2:51 AM 60.1 °F 46.9 °F 62% 30.20 in 10.0 mi NE 16.1 mph - N/A   Overcast
3:51 AM 59.0 °F 46.0 °F 62% 30.21 in 10.0 mi NNE 15.0 mph - N/A   Overcast
4:51 AM 59.0 °F 45.0 °F 60% 30.20 in 10.0 mi NNE 13.8 mph 26.5 mph N/A   Overcast
5:51 AM 59.0 °F 46.0 °F 62% 30.20 in 10.0 mi NE 15.0 mph - N/A   Overcast
6:51 AM 59.0 °F 45.0 °F 60% 30.23 in 10.0 mi NNE 11.5 mph - N/A   Mostly Cloudy
7:51 AM 60.1 °F 45.0 °F 57% 30.23 in 10.0 mi NE 20.7 mph - N/A   Overcast
8:51 AM 59.0 °F 46.0 °F 62% 30.26 in 10.0 mi NE 24.2 mph 32.2 mph N/A   Overcast
9:14 AM 59.0 °F 46.9 °F 64% 30.28 in 10.0 mi ENE 20.7 mph 29.9 mph 0.00 in Rain Light Rain
9:51 AM 55.0 °F 48.0 °F 77% 30.30 in 4.0 mi ENE 23.0 mph 33.4 mph 0.00 in Rain Light Rain
10:51 AM 54.0 °F 48.9 °F 83% 30.29 in 2.5 mi NNE 17.3 mph 24.2 mph 0.09 in Rain Rain
11:34 AM 54.0 °F 48.9 °F 83% 30.29 in 2.5 mi NNE 17.3 mph 25.3 mph 0.19 in Rain Rain
11:51 AM 55.0 °F 48.9 °F 80% 30.28 in 2.5 mi NNE 17.3 mph 27.6 mph 0.26 in Rain Rain
12:43 PM 54.0 °F 48.9 °F 83% 30.27 in 2.5 mi NNE 15.0 mph - 0.14 in Rain Rain
12:51 PM 54.0 °F 48.9 °F 83% 30.27 in 2.5 mi NNE 18.4 mph 24.2 mph 0.15 in Rain Rain
1:06 PM 55.0 °F 48.9 °F 80% 30.26 in 7.0 mi NNE 18.4 mph 26.5 mph 0.02 in Rain Light Rain
1:51 PM 55.0 °F 48.9 °F 80% 30.25 in 10.0 mi NNE 17.3 mph 23.0 mph 0.02 in   Overcast
2:51 PM 55.9 °F 48.9 °F 77% 30.25 in 10.0 mi NNE 15.0 mph 25.3 mph 0.01 in   Overcast
3:51 PM 55.9 °F 48.0 °F 75% 30.25 in 10.0 mi NNE 16.1 mph 28.8 mph 0.00 in Rain Light Rain
4:51 PM 55.9 °F 48.0 °F 75% 30.24 in 10.0 mi North 13.8 mph 21.9 mph 0.00 in   Overcast
5:51 PM 55.9 °F 48.0 °F 75% 30.24 in 10.0 mi NNE 12.7 mph - N/A   Overcast
6:48 PM 55.4 °F 46.4 °F 72% 30.25 in 10.0 mi NNE 15.0 mph 23.0 mph N/A   Overcast
6:51 PM 55.9 °F 46.9 °F 72% 30.25 in 10.0 mi NNE 13.8 mph 23.0 mph N/A   Overcast
7:51 PM 55.0 °F 45.0 °F 69% 30.25 in 10.0 mi NNE 13.8 mph - N/A   Mostly Cloudy
8:51 PM 54.0 °F 46.0 °F 75% 30.26 in 10.0 mi NNE 12.7 mph - 0.00 in Rain Light Rain
9:51 PM 54.0 °F 46.0 °F 75% 30.27 in 10.0 mi NNE 16.1 mph 21.9 mph 0.00 in Rain Light Rain
10:51 PM 54.0 °F 46.9 °F 77% 30.26 in 10.0 mi North 12.7 mph - 0.00 in   Overcast
11:51 PM 53.1 °F 46.9 °F 80% 30.26 in 10.0 mi North 13.8 mph - 0.00 in Rain Light Rain